Flag for Germany Weather past 2 weeks in Bocholt, North Rhine-Westphalia, Germany

Now
46 °F

Scattered clouds.


Feels Like: 40 °F
Forecast: 35 / 49 °F
Wind: 14 mph from Northwest

Location: Niederrhein

Current Time: Apr 2, 2015 at 12:49:17 PM

Latest Report: Apr 2, 2015 at 12:20 PM


Visibility: N/A

Pressure: 29.98 "Hg

Humidity: 53%

Dew point: 30 °F

Location of BocholtLocation

Historic Weather in Bocholt — Graph

°F

Bocholt temperature yesterday

Maximum temperature yesterday: 48 °F (at 4:50 PM)
Minimum temperature yesterday: 37 °F (at 6:50 AM)
Average temperature yesterday: 44 °F

Past Weeks' High & Low Weather Summary

 TemperatureHumidityPressure
High61 °F (Mar 18, 2:20 PM)100% (Mar 21, 7:20 AM)30.39 "Hg (Mar 21, 7:20 AM)
Low30 °F (Mar 23, 5:50 AM)44% (Mar 31, 4:20 PM)29.21 "Hg (Mar 29, 7:20 PM)
Average44 °F78%29.94 "Hg
* Reported Mar 18 10:20 AM — Apr 2 11:50 AM, Bocholt, Weather by CustomWeather, © 2015

Note: Actual official high and low records may vary slightly from our data, if they occured in-between our weather recording intervals... More about our weather records

Advertising

Bocholt weather history for previous 24 hours

 ConditionsComfort  
Time TempWeatherWind HumidityBarometerVisibility
11:50 AM
Thu, Apr 2
45 °FPassing clouds.14 mph57%29.98 "HgN/A
11:20 AM45 °FScattered clouds.15 mph61%29.95 "HgN/A
10:50 AM43 °FScattered clouds.14 mph66%29.95 "HgN/A
10:20 AM43 °FScattered clouds.15 mph71%29.92 "HgN/A
9:50 AM43 °FPassing clouds.13 mph76%29.89 "HgN/A
9:20 AM41 °FPassing clouds.10 mph81%29.89 "HgN/A
8:50 AM41 °FPassing clouds.9 mph87%29.86 "HgN/A
8:20 AM41 °FPassing clouds.8 mph87%29.86 "HgN/A
7:50 AM41 °FLight rain. Passing clouds.9 mph93%29.83 "HgN/A
7:20 AM41 °FLight rain. Partly cloudy.10 mph93%29.83 "Hg6 mi
6:50 AM43 °FLight rain. Passing clouds.9 mph87%29.80 "Hg4 mi
6:20 AM43 °FLight rain. Passing clouds.7 mph93%29.80 "Hg6 mi
5:50 AM43 °FLight rain. Passing clouds.15 mph93%29.80 "HgN/A
5:20 AM43 °FLight rain. Passing clouds.15 mph93%29.83 "Hg6 mi
4:50 AM43 °FLight rain. Passing clouds.14 mph93%29.86 "HgN/A
11:50 PM
Wed, Apr 1
46 °FPassing clouds.22 mph62%30.01 "HgN/A
11:20 PM46 °FPassing clouds.22 mph66%30.01 "HgN/A
10:50 PM46 °FPassing clouds.23 mph66%30.01 "HgN/A
10:20 PM46 °FClear.18 mph62%30.01 "Hg10 mi
9:50 PM46 °FPartly sunny.20 mph62%30.04 "HgN/A
9:20 PM46 °FScattered clouds.14 mph62%30.04 "HgN/A
8:50 PM46 °FSunny.15 mph62%30.04 "Hg10 mi
8:20 PM46 °FSunny.15 mph62%30.07 "Hg10 mi
7:50 PM46 °FSunny.16 mph57%30.07 "Hg10 mi
7:20 PM46 °FPassing clouds.16 mph57%30.07 "HgN/A
6:50 PM46 °FSunny.18 mph57%30.07 "Hg10 mi
6:20 PM48 °FPassing clouds.18 mph50%30.07 "HgN/A
5:50 PM46 °FPassing clouds.18 mph53%30.07 "HgN/A
5:20 PM48 °FScattered clouds.23 mph46%30.07 "HgN/A
4:50 PM48 °FScattered clouds.21 mph54%30.07 "HgN/A
4:20 PM46 °FScattered showers. Scattered clouds.22 mph62%30.07 "HgN/A
3:50 PM46 °FScattered showers. Clear.20 mph62%30.07 "HgN/A
3:20 PM45 °FPassing clouds.21 mph66%30.07 "HgN/A
2:50 PM45 °FScattered showers. Partly sunny.13 mph66%30.07 "HgN/A
2:20 PM46 °FSprinkles. Partly sunny.8 mph71%30.07 "HgN/A
1:50 PM45 °FSprinkles. Partly sunny.18 mph76%30.07 "Hg6 mi
1:20 PM45 °FScattered showers. Clear.17 mph76%30.07 "Hg6 mi
12:50 PM43 °FLight rain. Broken clouds.15 mph81%30.07 "Hg6 mi
12:20 PM41 °FRain showers. Partly sunny.20 mph81%30.07 "Hg6 mi
Weather by CustomWeather, © 2015

See weather overviewHow to use our weather pages